FW3072 Weather Reports


time (UTC)temp
F
wind
direction
speed
knots
gust
knots
rain 1hr
in
rain 24hr
in
rain mn
in
humidity
%
barometer
mb
20220124101202 -3 16 0.0 0.0 0.00 0.00 0.00 83 1014.3
20220124100201 -3 16 0.0 0.0 0.00 0.00 0.00 83 1014.1
20220124095205 -2 16 0.0 0.0 0.00 0.00 0.00 83 1014.0
20220124094202 -2 16 0.0 0.0 0.00 0.00 0.00 83 1014.0
20220124093202 -2 16 0.0 0.0 0.00 0.00 0.00 83 1013.9
20220124092202 -1 16 0.0 0.0 0.00 0.00 0.00 83 1013.8
20220124091204 -1 16 0.0 0.0 0.00 0.00 0.00 83 1013.9
20220124090202 -1 16 0.0 0.9 0.00 0.00 0.00 83 1013.8
20220124085201 -1 16 0.0 0.0 0.00 0.00 0.00 83 1013.9
20220124084203 0 16 0.0 0.0 0.00 0.00 0.00 83 1013.9
20220124083203 0 16 0.0 0.0 0.00 0.00 0.00 83 1014.1
20220124082204 0 16 0.0 0.0 0.00 0.00 0.00 83 1014.1
20220124081204 1 16 0.0 0.0 0.00 0.00 0.00 83 1014.2
20220124080202 2 16 0.0 0.0 0.00 0.00 0.00 83 1014.2
20220124075201 2 16 0.0 0.0 0.00 0.00 0.00 83 1014.3
20220124074203 2 16 0.0 1.7 0.00 0.00 0.00 83 1014.3
20220124073201 2 16 0.0 0.0 0.00 0.00 0.00 83 1014.2
20220124072203 2 16 0.0 0.0 0.00 0.00 0.00 83 1014.2
20220124071203 2 16 0.0 0.0 0.00 0.00 0.00 82 1014.1
20220124070201 2 16 0.0 0.0 0.00 0.00 0.00 81 1014.0
20220124065203 2 16 0.0 0.0 0.00 0.00 0.00 81 1014.0
20220124064204 3 16 0.0 0.0 0.00 0.00 0.00 81 1014.0
20220124063202 4 16 0.0 0.0 0.00 0.00 0.00 81 1014.0
20220124062202 4 16 0.0 1.7 0.00 0.00 0.00 80 1014.1
20220124061203 5 16 0.0 1.7 0.00 0.00 0.00 80 1014.0
20220124060201 6 16 1.7 1.7 0.00 0.00 0.00 79 1014.1
20220124055203 7 16 0.0 0.0 0.00 0.00 0.00 80 1014.1
20220124054201 8 16 0.0 0.0 0.00 0.00 0.00 79 1014.2
20220124053203 9 16 0.0 0.9 0.00 0.00 0.00 78 1014.4
20220124052202 10 16 0.0 0.9 0.00 0.00 0.00 78 1014.6
20220124051201 10 16 0.0 1.7 0.00 0.00 0.00 78 1014.7
20220124050203 11 17 0.0 2.6 0.00 0.00 0.00 78 1014.7
20220124045201 11 37 0.9 2.6 0.00 0.00 0.00 78 1014.8
20220124044203 11 92 0.0 0.0 0.00 0.00 0.00 79 1014.9
20220124043202 10 92 0.0 0.0 0.00 0.00 0.00 79 1015.0
20220124042201 10 92 0.0 0.0 0.00 0.00 0.00 78 1015.0
20220124041202 10 92 0.0 0.0 0.00 0.00 0.00 78 1014.8
20220124040201 10 92 0.0 0.0 0.00 0.00 0.00 78 1014.7
20220124035206 10 92 0.0 1.7 0.00 0.00 0.00 78 1014.7
20220124034202 10 92 0.9 2.6 0.00 0.00 0.00 78 1014.7
20220124033202 9 359 0.0 3.5 0.00 0.00 0.00 79 1014.7
20220124032201 8 341 0.9 1.7 0.00 0.00 0.00 79 1014.6
20220124031202 8 342 0.0 2.6 0.00 0.00 0.00 78 1014.6
20220124030203 7 347 0.9 2.6 0.00 0.00 0.00 76 1014.5
20220124025201 8 349 0.0 0.9 0.00 0.00 0.00 76 1014.3
20220124024202 8 349 0.0 0.0 0.00 0.00 0.00 75 1014.1
20220124023209 8 349 0.0 0.9 0.00 0.00 0.00 74 1014.1
20220124022202 9 349 0.0 0.0 0.00 0.00 0.00 73 1014.1
20220124021202 9 348 0.0 1.7 0.00 0.00 0.00 73 1014.0
20220124020202 10 348 0.0 3.5 0.00 0.00 0.00 71 1013.8
20220124015202 10 345 0.9 3.5 0.00 0.00 0.00 71 1013.7
20220124014201 10 331 1.7 3.5 0.00 0.00 0.00 70 1013.6
20220124013203 11 353 0.9 4.3 0.00 0.00 0.00 68 1013.5
20220124012202 11 15 0.0 3.5 0.00 0.00 0.00 68 1013.5
20220124011202 12 28 0.9 4.3 0.00 0.00 0.00 67 1013.3
20220124010202 12 23 1.7 5.2 0.00 0.00 0.00 67 1013.2
20220124005202 13 344 1.7 7.0 0.00 0.00 0.00 68 1013.1
20220124004203 13 18 0.9 3.5 0.00 0.00 0.00 68 1012.9
20220124003202 14 27 1.7 7.8 0.00 0.00 0.00 68 1012.8
20220124002201 14 355 1.7 5.2 0.00 0.00 0.00 69 1012.7
20220124001202 14 4 2.6 8.7 0.00 0.00 0.00 69 1012.6
20220124000204 15 5 0.9 3.5 0.00 0.00 0.00 70 1012.4
20220123235201 15 6 0.9 4.3 0.00 0.00 0.00 71 1012.3
20220123234202 16 330 0.9 5.2 0.00 0.00 0.00 72 1012.3
20220123233202 16 355 0.9 7.8 0.00 0.00 0.00 73 1012.3
20220123232202 16 330 0.9 3.5 0.00 0.00 0.00 75 1012.2
20220123231202 16 344 1.7 3.5 0.00 0.00 0.00 76 1012.1
20220123230201 16 344 1.7 4.3 0.00 0.00 0.00 78 1012.0
20220123225202 16 358 0.9 6.1 0.00 0.00 0.00 80 1012.0
20220123224201 16 332 0.9 2.6 0.00 0.00 0.00 83 1011.7
20220123223202 16 360 0.0 0.0 0.00 0.00 0.00 83 1011.5
20220123222201 16 360 0.0 0.0 0.00 0.00 0.00 83 1011.3
20220123221203 16 360 0.0 0.0 0.00 0.00 0.00 83 1011.1
20220123220204 16 360 0.0 0.9 0.00 0.00 0.00 83 1011.0
20220123215201 17 359 0.0 2.6 0.00 0.00 0.00 82 1011.0
20220123214202 17 355 0.0 1.7 0.00 0.00 0.00 83 1010.9
20220123213202 17 354 0.9 3.5 0.00 0.00 0.00 82 1010.8
20220123212203 18 36 1.7 3.5 0.00 0.00 0.00 83 1010.6
20220123211205 18 18 1.7 7.8 0.00 0.00 0.00 82 1010.5
20220123210203 18 61 1.7 3.5 0.00 0.00 0.00 83 1010.5
20220123205202 18 21 1.7 4.3 0.00 0.00 0.00 82 1010.4
20220123204203 18 67 2.6 4.3 0.00 0.00 0.00 82 1010.3
20220123203201 18 61 2.6 8.7 0.00 0.00 0.00 81 1010.3
20220123202204 18 49 2.6 6.1 0.00 0.00 0.00 80 1010.1
20220123201204 18 55 2.6 7.0 0.00 0.00 0.00 80 1010.0
20220123200202 19 64 3.5 6.1 0.00 0.00 0.00 80 1009.9
20220123195201 19 61 2.6 7.8 0.00 0.00 0.00 81 1009.8
20220123194202 19 67 3.5 7.8 0.00 0.00 0.00 81 1009.7
20220123193202 19 32 3.5 7.8 0.00 0.00 0.00 81 1009.8
20220123192203 20 45 2.6 7.0 0.00 0.00 0.00 80 1009.7
20220123191202 20 50 2.6 8.7 0.00 0.00 0.00 79 1009.7
20220123190203 21 7 1.7 7.0 0.00 0.00 0.00 80 1009.7
20220123185201 21 61 3.5 7.8 0.00 0.00 0.00 80 1009.7
20220123184203 21 46 0.9 7.0 0.00 0.00 0.00 81 1009.6
20220123183202 21 30 2.6 5.2 0.00 0.00 0.00 81 1009.7
20220123182203 21 49 1.7 9.6 0.00 0.00 0.00 80 1009.7
20220123181202 22 31 2.6 8.7 0.00 0.00 0.00 80 1009.7
20220123180203 22 16 3.5 7.0 0.00 0.00 0.00 81 1009.6
20220123175201 23 4 4.3 9.6 0.00 0.00 0.00 82 1009.9
20220123174202 23 357 3.5 7.8 0.00 0.00 0.00 82 1009.8
20220123173204 23 351 2.6 7.0 0.00 0.00 0.00 83 1009.9
20220123172202 23 327 1.7 7.0 0.00 0.00 0.00 83 1010.0
20220123171202 22 316 1.7 4.3 0.00 0.00 0.00 84 1010.1
20220123170203 22 348 1.7 4.3 0.00 0.00 0.00 84 1010.3
20220123165201 22 331 1.7 7.0 0.00 0.00 0.00 85 1010.5
20220123164202 22 17 2.6 7.8 0.00 0.00 0.00 85 1010.7
20220123163201 22 331 2.6 5.2 0.00 0.00 0.00 85 1010.8
20220123162202 22 5 1.7 5.2 0.00 0.00 0.00 85 1011.0
20220123161201 22 338 1.7 3.5 0.00 0.00 0.00 86 1011.1
20220123160202 22 324 0.9 2.6 0.00 0.00 0.00 86 1011.1
20220123155203 22 308 2.6 3.5 0.00 0.00 0.00 85 1011.0
20220123154202 22 309 2.6 3.5 0.00 0.00 0.00 85 1011.1
20220123153202 22 294 1.7 5.2 0.00 0.00 0.00 86 1011.0
20220123152202 22 343 1.7 3.5 0.00 0.00 0.00 86 1011.0
20220123151202 22 280 0.9 3.5 0.00 0.00 0.00 85 1011.1
20220123150203 22 298 1.7 3.5 0.00 0.00 0.00 86 1011.1
20220123145202 22 289 0.0 1.7 0.00 0.00 0.00 86 1011.1
20220123144202 22 289 0.0 2.6 0.00 0.00 0.00 86 1011.1
20220123143202 22 289 0.0 3.5 0.00 0.00 0.00 86 1011.2
20220123142204 21 271 0.9 2.6 0.00 0.00 0.00 86 1011.3
20220123141203 21 261 0.9 2.6 0.00 0.00 0.00 86 1011.4
20220123140204 21 260 0.0 2.6 0.00 0.00 0.00 86 1011.5
20220123135202 21 260 1.7 2.6 0.00 0.00 0.00 85 1011.6
20220123134202 21 259 0.9 3.5 0.00 0.00 0.00 85 1011.6
20220123133201 21 245 0.9 4.3 0.00 0.00 0.00 85 1011.6
20220123132203 21 283 0.9 3.5 0.00 0.00 0.00 85 1011.7
20220123131201 21 271 1.7 3.5 0.00 0.00 0.00 85 1011.7
20220123130202 21 254 1.7 3.5 0.00 0.00 0.00 84 1011.8
20220123125201 21 253 0.9 3.5 0.00 0.00 0.00 84 1011.7
20220123124204 21 276 0.9 2.6 0.00 0.00 0.00 83 1011.8
20220123123203 21 283 0.9 5.2 0.00 0.00 0.00 83 1011.8
20220123122203 21 261 1.7 7.0 0.00 0.00 0.00 83 1011.8
20220123121201 22 275 1.7 5.2 0.00 0.00 0.00 83 1011.9
20220123120203 22 299 1.7 4.3 0.00 0.00 0.00 82 1011.9
20220123115204 22 282 3.5 8.7 0.00 0.00 0.00 82 1011.9
20220123114202 22 298 2.6 7.8 0.00 0.00 0.00 81 1011.8
20220123113203 23 304 4.3 7.8 0.00 0.00 0.00 81 1011.8
20220123112202 23 316 1.7 6.1 0.00 0.00 0.00 81 1011.8
20220123111203 23 301 2.6 7.0 0.00 0.00 0.00 80 1011.8
20220123110202 23 325 5.2 10.4 0.00 0.00 0.00 80 1011.8
20220123105203 23 309 4.3 7.8 0.00 0.00 0.00 78 1011.9
20220123104202 24 321 2.6 7.8 0.00 0.00 0.00 76 1011.9
20220123103203 24 282 3.5 9.6 0.00 0.00 0.00 76 1011.8
20220123102203 24 292 0.9 7.8 0.00 0.00 0.00 75 1011.9